This is the latest recevied weather packets stored in our database for station/object DL1AIE-13. If no packets are shown the sender has not sent any weather packets the latest 10 day(s).
| Time | Temp. | Humidity | Pressure | Rain* | Wind** | Luminosity | Snow |
|---|---|---|---|---|---|---|---|
| 1777437152 | 4.44° C | 72% | 1023.9 hPa | 0 mm | - | - | - |
| 1777436548 | 4.44° C | 71% | 1023.8 hPa | 0 mm | - | - | - |
| 1777435944 | 4.44° C | 70% | 1023.8 hPa | 0 mm | - | - | - |
| 1777435341 | 4.44° C | 68% | 1023.7 hPa | 0 mm | - | - | - |
| 1777434737 | 5° C | 66% | 1023.6 hPa | 0 mm | - | - | - |
| 1777434153 | 5.56° C | 63% | 1023.7 hPa | 0 mm | - | - | - |
| 1777433549 | 5.56° C | 60% | 1023.6 hPa | 0 mm | - | - | - |
| 1777432944 | 6.67° C | 56% | 1023.5 hPa | 0 mm | - | - | - |
| 1777432340 | 6.11° C | 57% | 1023.5 hPa | 0 mm | - | - | - |
| 1777431736 | 6.67° C | 56% | 1023.4 hPa | 0 mm | - | - | - |
| 1777431153 | 6.67° C | 56% | 1023.4 hPa | 0 mm | - | - | - |
| 1777430549 | 7.22° C | 55% | 1023.3 hPa | 0 mm | - | - | - |
| 1777429945 | 7.78° C | 51% | 1023.2 hPa | 0 mm | - | - | - |
| 1777429341 | 8.33° C | 48% | 1023.1 hPa | 0 mm | - | - | - |
| 1777428737 | 7.78° C | 51% | 1023.1 hPa | 0 mm | - | - | - |
| 1777428154 | 6.67° C | 59% | 1023 hPa | 0 mm | - | - | - |
| 1777427550 | 6.67° C | 56% | 1022.9 hPa | 0 mm | - | - | - |
| 1777426946 | 6.67° C | 60% | 1022.8 hPa | 0 mm | - | - | - |
| 1777426342 | 6.67° C | 59% | 1022.7 hPa | 0 mm | - | - | - |
| 1777425739 | 7.22° C | 57% | 1022.8 hPa | 0 mm | - | - | - |
| 1777425155 | 7.78° C | 55% | 1022.8 hPa | 0 mm | - | - | - |
| 1777424552 | 7.78° C | 54% | 1022.8 hPa | 0 mm | - | - | - |
| 1777423948 | 8.33° C | 52% | 1022.7 hPa | 0 mm | - | - | - |
| 1777423344 | 8.33° C | 51% | 1022.8 hPa | 0 mm | - | - | - |
| 1777422741 | 8.89° C | 48% | 1022.8 hPa | 0 mm | - | - | - |
* Rain latest hour (hover to see other rain measurements)
** Current wind speed in m/s (hover to see current wind gust speed)